Voltar ao catálogo

ATLAS 5 CENTAUR DEB

LostHEO
NORAD 44039·DEBRIS·🇺🇸 United States

Lançado Sep 17, 2014 de Cape Canaveral Space Force Station

Loading…

Próximas Passagens (próximas 24 horas)

TLE

ObsoletoSource: Space-Track

Época: Jun 25, 2026, 05:32 UTC

1 44039U 14055BZ  26176.23122353 -.00000092  00000-0  00000-0 0  9990
2 44039  20.5989 126.1677 4814098 198.3104 135.5523  1.89431158 52635

Acompanhe ATLAS 5 CENTAUR DEB em tempo real com AllMySat

Download on the App Store